CAPE
2364 1981 1462 1371 943 476 606 694 653 799 874 957 1068 888 653 617 585 441 393 444 424 396
2179 1876 1629 1166 336 620 1047 933 751 690 608 302 411 719 887 581 449 435 297 202 169 237
2028 1791 1476 901 1490 1110 925 701 670 708 777 490 273 620 470 342 146 60 125 9 0 0
1569 1599 1392 1381 1196 1075 839 877 840 707 498 281 383 304 127 0 11 6 0 0 0 0
1684 1612 1438 1335 921 1182 849 814 698 610 400 76 73 14 0 0 2 0 1 0 0 0
1726 1559 1569 1225 1123 1027 777 685 568 235 122 0 0 0 1 4 2 4 0 0 0 0
1580 1945 1328 1101 1017 717 627 386 162 17 0 1 0 0 0 0 0 0 0 0 0 0
1835 1289 1127 970 770 564 363 158 2 0 0 0 0 0 0 0 0 0 0 0 0 0
1186 1039 929 797 641 374 151 66 0 0 0 0 0 0 0 0 0 0 0 0 0 0
1015 958 828 599 326 128 56 0 0 0 0 0 0 0 0 0 0 0 0 0 0 0
916 722 565 317 162 70 5 0 0 0 0 0 0 0 0 0 0 0 0 0 0 1
653 400 362 214 71 0 0 0 0 0 0 0 0 0 0 0 0 0 0 0 0 1
489 398 232 68 0 0 0 0 0 0 0 0 0 0 0 0 0 0 0 0 0 0
400 258 84 0 0 0 0 0 0 0 0 0 0 0 0 0 0 0 0 0 0 0
CIN
-70 -81 -64 -57 -59 -72 -55 -47 -38 -20 -19 -28 -14 -15 -21 -21 -18 -27 -39 -24 -22 -17
-100 -76 -67 -66 -139 -66 -19 -20 -25 -21 -29 -48 -39 -13 -2 -8 -13 -18 -34 -62 -74 -50
-83 -65 -47 -76 -15 -33 -25 -22 -13 -20 -17 -35 -53 -11 -7 -10 -27 -101 -28 -119 -0 -0
-108 -58 -48 -28 -35 -25 -29 -20 -15 -18 -26 -53 -21 -18 -65 -1 -32 -45 -0 -0 -0 -0
-85 -51 -49 -43 -57 -28 -30 -26 -19 -27 -42 -95 -80 -35 -0 -0 -4 -3 -7 -0 -0 -0
-70 -56 -40 -58 -46 -32 -41 -34 -34 -66 -88 -0 -0 -0 -3 -6 -4 -7 -0 -0 -0 -0
-78 -23 -60 -65 -47 -64 -60 -93 -126 -182 -0 -3 -5 -0 -0 -0 -0 -0 -0 -0 -0 -0
-56 -100 -95 -96 -97 -104 -108 -143 -57 -0 -0 -0 -0 -0 -0 -0 -0 -0 -0 -0 -0 -0
-164 -158 -130 -126 -118 -148 -194 -206 -4 -0 -0 -0 -0 -0 -0 -0 -0 -0 -0 -0 -0 -0
-186 -158 -126 -130 -158 -205 -209 -0 -0 -0 -0 -0 -0 -0 -0 -0 -0 -0 -0 -0 -0 -0
-161 -166 -150 -175 -196 -214 -142 -0 -0 -0 -0 -0 -0 -0 -0 -0 -0 -0 -0 -0 -1 -22
-195 -225 -204 -224 -243 -0 -0 -0 -0 -0 -0 -0 -0 -0 -0 -0 -0 -0 -0 -0 -0 -15
-214 -213 -233 -297 -0 -0 -0 -0 -0 -0 -0 -0 -0 -0 -0 -0 -0 -0 -0 -0 -0 -0
-222 -250 -318 -0 -0 -0 -0 -0 -0 -0 -0 -0 -0 -0 -0 -0 -0 -0 -0 -0 -0 -0
Wind_Speed
7 10 12 13 15 14 13 16 17 17 19 21 21 20 20 20 19 20 21 20 20 19
9 11 12 13 15 15 17 18 19 19 20 22 22 22 19 21 22 21 22 22 22 22
9 11 12 13 15 15 16 17 17 18 20 22 22 23 21 21 21 22 21 22 23 24
10 11 12 13 14 15 16 17 18 19 20 21 22 22 21 22 22 22 23 23 23 23
12 13 14 14 15 15 16 16 18 18 19 20 21 21 21 22 22 21 22 23 24 24
13 13 14 14 14 14 15 16 17 18 19 20 20 20 21 21 21 20 20 22 23 23
13 13 14 14 14 14 15 17 19 20 21 22 20 21 22 21 21 20 20 22 22 22
13 13 14 14 15 15 16 17 18 19 21 22 22 23 23 20 20 19 19 19 19 20
12 13 13 13 13 14 15 17 18 19 20 22 22 22 22 21 22 18 20 21 18 17
11 11 11 12 13 13 14 17 19 21 20 21 21 22 22 22 21 20 19 18 20 17
9 9 10 11 12 13 15 17 19 21 19 20 21 21 21 22 22 23 28 14 17 19
7 7 8 10 11 12 14 17 18 20 20 19 19 19 20 22 23 23 25 28 24 22
5 6 8 10 11 13 14 16 18 19 18 16 16 15 18 21 22 23 26 28 27 26
4 6 8 11 11 12 14 16 19 19 18 15 14 14 16 19 22 23 26 29 27 22
Wind_Direction
57 27 26 36 33 50 62 56 52 52 44 33 30 34 33 31 29 27 20 18 14 12
45 35 30 43 41 53 49 44 45 41 35 25 18 13 29 21 19 24 20 16 14 13
58 43 49 54 39 51 42 45 48 40 33 22 14 9 23 20 21 17 19 16 11 7
60 55 53 63 48 46 39 35 35 32 24 16 15 12 14 14 14 14 13 12 10 9
77 76 84 70 54 48 45 39 35 35 28 23 19 14 12 8 8 10 8 5 3 2
87 94 90 73 56 50 47 45 35 29 24 21 17 19 12 11 11 13 14 8 3 1
100 90 87 72 62 42 36 33 25 18 13 8 12 8 5 10 12 15 12 6 6 6
90 75 65 54 47 42 32 28 20 18 14 11 8 1 359 7 11 11 13 11 10 9
80 71 66 57 45 34 23 16 17 13 12 6 5 3 1 4 3 11 10 7 6 7
82 67 58 50 38 29 25 16 9 6 8 7 7 7 4 1 3 5 2 4 3 0
76 59 51 37 32 26 17 9 6 2 8 7 8 8 6 1 358 354 349 353 353 351
81 56 43 31 28 25 21 6 4 3 4 10 10 14 12 6 2 356 356 354 352 342
69 47 32 29 22 14 12 10 4 0 5 14 13 18 15 10 7 1 354 350 348 350
50 43 34 22 20 20 19 10 1 356 0 9 13 18 15 13 10 6 359 353 351 354